STARLINK-5634, 55439

Orbit data source: Space-Track

STARLINK-5634, 55439 is a payload satellite owned by SpaceX/Seattle (US) in LEO that was launched on Tue, 31 Jan 2023 UTC via an FALCON 9 launch vehicle from the Air Force Western Test Range (AFWTR). Payload-class satellites include a variety of spacecraft equipped with specific instruments for various scientific and technological missions. These include communications satellites like Starlink; space stations such as the ISS; scientific satellites like the Hubble; Earth observation satellites from companies like Planet Labs, Umbra, and HawkEye 360; GPS; miniature CubeSats for education and research; and military/defense satellites.

Loading next visibility...
Identifier
55439, 2023-014BA
Orbit
LEO
Country
Flag of USUS
Related business
Manufacturer
SpaceX/Seattle
Mission
Operational Commercial Communications
Bus & Motor
STARLINK, Unknown motor
Mass
305 kg wet, ~290 kg dry
Launch date (UTC)
2023-01-31 (3 years ago)
Launch vehicle
FALCON 9
Launch site
Air Force Western Test Range (AFWTR)
Object type
Payload
Rocket body
Debris
Shape & HBR
Box + 1 Pan, 10.1 m
Radar Cross Section
13.562 m², Large (>1 m²)

Expand to show TLE details & history
Last TLE update: 2 days ago

TLE from 2 days ago
0 STARLINK-5634
1 55439U 23014BA  26171.34478189 -.00000205  00000-0 -93401-5 0  9998
2 55439  69.9991 205.6948 0003698 264.5410  95.5327 14.98331154186446
Epoch: 2026-06-20T08:16Z
TLE epoch observation values (Epoch: 2026-06-20T08:16:29.155Z)
Latitude
-0.00004°
Longitude
173.01256°
Altitude
574.725 km
Speed
7.574 km/s
True Right ascension
13h 42m 46s
True Declination
0° 00' 00"
Sunlit
Object was in full shadow at epoch
Visualization orbit readout
Latitude
Unknown
Longitude
Unknown
Altitude
Unknown
Speed
Unknown
Apparent Right ascension
Unknown
Apparent Declination
Unknown
Sunlit
N/A
Visualization observer readout
Local Sidereal Time
21:23:41
Azimuth
Unknown
Elevation
Unknown
Doppler factor
Unknown
Orbital elements
Apogee altitude
572.57 km
Perigee altitude
567.431 km
Semi-major axis
6,948.138 km
Eccentricity
0.00037
Inclination
69.9991°
RAAN
205.6948°
Arg. of periapsis
264.541°
True anomaly
95.57488°
Mean anomaly
95.5327°
Eccentric anomaly
95.55379°
Mean motion
3.74749 °/min
Orbital period
96.06 mins
BSTAR
-0.0000093401
Loading maneuver chart data...
Computing Atmospheric mass density...

Documentation

Showing up to 5 results
|